Temperature
11 11 11 11 11 11 11 11 11 10 10 10 10 10 10 10 10 10 10 10 10 10 10 10 10 10 10 10 10 10 10 10 10 10 10 10 10 10 10 10 10 10 10
10 10 10 10 10 10 10 10 10 10 10 10 10 10 10 10 10 10 10 10 10 10 10 10 10 9 9 9 9 10 10 10 10 10 10 10 10 10 10 10 9 10 10
10 10 10 10 10 10 10 10 10 10 10 9 9 9 9 9 9 9 9 9 9 9 9 9 9 9 9 9 9 9 9 9 9 9 9 9 9 9 9 9 9 9 9
9 9 9 9 9 9 10 10 9 9 9 9 9 9 9 9 9 9 9 9 9 9 9 9 9 9 9 9 9 9 9 9 9 9 9 9 9 9 9 9 9 9 9
9 9 9 9 9 9 9 9 9 9 9 9 8 8 8 8 8 8 8 8 8 8 9 9 9 9 9 8 8 8 8 8 8 8 8 8 8 8 8 8 9 8 8
8 8 8 8 8 8 8 8 8 8 8 8 8 8 8 7 8 8 8 8 8 8 8 8 8 8 8 8 8 8 8 8 8 8 8 8 8 8 8 8 8 8 8
8 8 8 8 8 8 8 8 8 8 8 8 8 7 7 7 7 7 7 7 7 7 7 8 8 8 8 8 8 8 8 7 7 7 7 7 8 7 7 7 8 8 8
7 7 7 7 7 8 7 8 7 7 7 7 7 7 6 6 6 6 6 6 7 7 7 7 7 7 7 7 7 7 7 7 7 7 7 7 7 7 7 7 7 7 7
6 6 6 7 7 7 7 7 7 7 7 7 7 7 6 6 5 5 5 6 6 6 6 6 7 7 7 7 7 7 7 7 7 7 6 6 6 6 6 7 7 7 7
5 6 6 6 6 6 7 7 7 7 7 7 6 6 6 6 5 5 5 5 5 6 6 6 6 6 6 6 6 6 6 6 6 6 6 6 6 6 6 6 6 6 6
5 5 5 5 5 5 6 6 6 6 6 6 6 6 6 6 6 5 4 5 5 5 5 5 5 5 5 5 6 6 6 6 6 6 6 6 6 6 6 6 6 6 6
4 4 4 4 4 5 5 5 5 5 5 5 5 6 6 6 6 5 5 4 4 5 4 4 5 5 5 5 5 5 5 5 5 6 6 5 5 5 5 5 5 5 5
3 3 4 4 4 4 4 4 4 4 4 5 5 5 5 5 5 5 5 4 4 4 4 4 4 4 4 4 4 5 5 5 5 5 5 5 5 5 5 5 5 5 5
3 3 3 3 3 3 3 4 3 4 4 4 4 4 4 4 4 4 4 4 3 3 3 3 4 4 4 4 4 4 4 4 4 4 5 5 5 5 4 4 4 4 4
2 2 2 3 3 3 3 3 3 3 3 3 3 3 4 4 4 4 4 4 4 2 2 3 3 3 3 3 3 3 4 4 4 4 4 4 4 4 4 4 4 4 4
1 2 2 2 2 2 2 2 2 2 2 3 3 3 3 3 3 3 3 3 3 3 2 2 3 3 3 3 3 3 3 3 3 3 3 3 3 3 3 3 3 3 3
1 1 1 1 1 1 1 1 2 2 2 2 2 2 2 2 2 2 2 2 2 2 2 2 2 2 2 2 2 2 2 2 2 3 3 3 3 3 3 3 3 2 2
0 0 1 1 1 1 1 1 1 1 1 1 1 1 2 2 2 2 2 1 1 1 1 1 2 1 1 1 1 1 1 1 2 2 2 2 2 2 2 2 2 2 2
-0 -0 0 0 0 0 0 0 0 0 0 1 1 1 1 1 1 1 1 1 1 1 1 1 1 1 1 1 0 0 0 1 1 1 1 1 1 1 1 1 1 1 1
-1 -1 -1 -1 -0 -0 -0 -0 -0 -0 -0 -0 0 0 0 0 0 0 0 0 0 -0 -0 -0 -0 0 -0 -0 -0 -0 -0 -0 -0 -0 0 0 0 0 0 0 0 0 0
-2 -2 -2 -1 -1 -1 -1 -1 -1 -1 -1 -1 -1 -0 -0 -0 -0 -0 -1 -0 -1 -1 -1 -1 -1 -1 -1 -1 -1 -1 -1 -1 -1 -1 -1 -1 -1 -1 -0 -0 -0 -0 -0
-3 -3 -2 -2 -2 -2 -2 -2 -2 -2 -1 -1 -1 -1 -1 -1 -1 -1 -1 -1 -1 -1 -1 -1 -2 -2 -1 -1 -2 -2 -2 -2 -2 -2 -2 -1 -1 -1 -1 -1 -1 -1 -1
-4 -3 -3 -3 -3 -3 -3 -2 -2 -2 -2 -2 -2 -2 -2 -2 -2 -2 -2 -2 -2 -2 -2 -2 -2 -2 -2 -2 -2 -2 -3 -3 -2 -2 -3 -2 -2 -2 -2 -2 -2 -2 -2
-4 -4 -4 -4 -4 -4 -3 -3 -3 -3 -3 -3 -3 -3 -3 -2 -2 -2 -2 -2 -2 -2 -2 -3 -2 -2 -3 -3 -3 -3 -3 -3 -3 -3 -4 -4 -3 -3 -3 -3 -3 -3 -3
-5 -5 -5 -5 -5 -4 -4 -4 -4 -4 -4 -4 -4 -4 -3 -3 -3 -3 -3 -3 -3 -3 -3 -3 -3 -3 -3 -4 -4 -4 -4 -4 -4 -4 -4 -5 -4 -4 -4 -4 -4 -4 -4
-5 -5 -5 -5 -5 -5 -5 -5 -5 -5 -4 -4 -4 -4 -4 -4 -4 -4 -4 -4 -4 -4 -4 -4 -4 -4 -4 -4 -4 -4 -4 -5 -5 -5 -5 -5 -5 -6 -6 -5 -5 -5 -5
Wind_Speed
5 5 5 6 7 7 8 7 7 8 8 8 9 9 9 9 9 9 9 11 11 12 12 13 13 13 13 13 13 13 13 12 12 12 11 11 12 12 12 12 12 12 11
6 5 5 5 6 7 7 7 7 7 7 7 8 9 9 9 10 10 10 10 11 11 11 12 12 12 12 13 13 13 12 11 11 11 11 11 11 11 11 11 11 11 10
7 6 5 4 5 7 8 8 7 7 6 7 6 7 8 8 9 10 10 9 9 10 11 11 11 12 12 12 12 12 12 12 11 11 10 10 10 10 10 10 10 9 9
7 6 5 4 5 7 7 6 5 5 5 5 4 5 6 7 9 10 10 9 9 9 10 11 11 11 11 11 11 11 11 10 10 10 10 9 9 8 8 8 8 8 7
7 7 5 4 6 6 5 5 4 5 6 5 5 5 5 6 7 9 9 9 9 9 9 10 10 10 10 10 10 9 9 9 9 8 8 8 7 6 6 6 6 6 5
7 7 5 5 6 5 4 4 5 4 6 6 6 6 5 5 7 7 7 8 9 9 9 9 9 8 8 8 8 8 8 7 7 7 7 7 6 6 5 5 5 5 5
6 6 5 5 5 4 5 5 5 6 5 5 5 5 4 5 5 5 6 7 8 8 9 8 8 7 7 7 6 7 7 7 6 5 5 6 6 6 6 5 5 5 5
6 6 5 4 4 4 5 5 6 4 4 4 4 5 3 2 2 3 3 4 5 6 7 6 7 6 6 6 5 6 6 5 5 5 4 4 5 5 5 5 5 5 5
5 5 5 5 4 5 6 6 6 5 6 3 2 4 5 4 2 1 2 2 3 4 4 4 5 5 5 5 4 4 4 4 4 4 4 3 3 3 4 4 5 5 5
3 4 5 5 5 4 5 5 5 3 6 5 2 1 2 4 4 2 0 1 2 2 2 2 3 3 4 4 4 3 3 3 3 2 2 3 4 3 3 4 4 5 5
2 4 4 4 4 4 5 5 4 3 4 5 4 2 2 2 2 3 3 1 0 0 0 1 2 3 3 3 3 4 3 2 2 2 2 3 3 4 4 4 4 4 5
1 2 4 4 4 4 4 5 5 4 4 4 3 3 4 4 3 3 3 3 2 1 1 1 2 3 2 2 2 3 2 3 2 2 3 3 4 4 4 5 5 5 5
2 3 3 4 4 4 4 4 4 4 5 5 4 3 3 3 3 3 4 3 1 1 0 1 2 2 1 1 1 2 2 2 3 3 3 3 4 5 5 5 6 6 6
3 3 4 4 4 4 4 4 4 3 4 4 4 3 2 2 3 3 4 4 2 1 1 2 0 2 1 0 1 2 2 3 3 4 4 4 4 5 5 5 6 7 7
3 3 4 4 4 4 5 5 3 4 4 4 4 3 2 2 2 2 3 4 5 4 4 3 2 2 2 1 2 1 2 3 3 4 4 5 5 5 5 6 6 7 7
3 4 4 4 4 4 5 4 3 4 4 4 3 4 3 2 2 3 3 3 3 4 3 3 2 1 2 2 3 3 3 3 3 3 4 5 5 4 5 6 7 7 8
4 4 5 5 5 5 4 4 5 5 5 4 4 4 4 3 3 3 3 3 2 3 3 2 1 1 2 1 3 3 3 3 4 4 5 5 5 5 6 7 7 8 9
4 5 5 5 5 5 5 6 6 6 6 6 5 5 5 4 4 4 4 4 4 3 3 3 2 2 2 2 2 2 3 3 4 5 5 5 6 6 6 7 7 8 9
3 3 4 5 6 6 6 6 7 7 7 7 6 6 6 5 5 4 4 4 4 3 3 3 3 2 1 2 2 2 2 2 4 5 5 5 6 7 7 7 8 8 8
3 3 4 4 5 6 6 6 6 6 6 6 6 6 6 7 7 6 5 6 5 4 3 3 3 2 2 2 2 2 2 2 2 4 4 5 6 7 8 8 9 9 8
2 3 3 3 3 4 5 6 6 6 6 6 5 5 6 7 8 7 6 6 6 5 4 4 3 3 3 3 3 2 2 2 3 2 2 4 5 5 6 8 8 8 7
1 2 3 3 3 4 5 6 5 5 5 6 6 5 5 6 7 8 9 9 8 7 6 5 4 5 5 4 3 3 2 2 3 2 2 4 4 4 6 7 7 8 8
2 3 3 3 4 4 5 6 6 5 5 5 6 5 5 5 5 5 6 6 7 8 9 7 7 7 6 6 5 4 4 4 4 3 2 4 3 4 6 7 8 8 7
3 3 3 3 3 3 5 5 5 3 4 4 5 6 6 5 5 5 4 4 5 5 7 6 6 6 6 7 7 5 5 3 2 3 2 3 3 3 6 7 7 6 7
3 3 3 4 4 4 5 5 4 3 3 4 4 5 5 5 7 7 5 5 5 4 5 7 7 7 8 8 7 3 3 2 3 3 2 2 2 3 4 4 5 6 7
3 3 3 3 3 3 5 5 5 3 3 3 3 4 6 7 8 8 6 6 6 5 4 4 4 4 4 6 7 5 5 4 2 3 2 1 2 2 3 3 3 5 7
Wind_Direction
120 119 118 115 114 114 110 104 105 101 98 96 94 92 88 91 95 93 90 91 95 99 103 104 104 105 105 105 103 100 98 97 95 92 89 87 85 81 78 76 74 70 68
127 124 118 117 117 118 119 114 111 108 101 100 94 90 89 89 92 92 92 90 90 94 101 105 104 103 103 104 101 99 98 98 96 95 93 90 87 83 78 77 74 69 66
134 130 126 123 124 123 119 112 104 107 103 99 96 92 90 87 89 89 88 88 87 88 93 96 101 103 103 103 100 98 95 91 91 91 93 93 90 86 81 77 74 67 64
138 132 128 128 131 126 121 122 116 122 113 108 104 92 87 88 87 87 85 84 83 83 85 88 90 96 100 100 100 97 94 91 87 85 85 88 86 84 79 76 71 68 64
141 138 132 132 133 126 121 131 128 135 128 117 110 94 83 85 87 86 81 79 80 81 82 84 85 86 89 90 91 94 93 90 86 84 82 79 78 77 73 69 69 64 57
143 138 134 138 137 132 128 131 135 130 132 129 112 91 74 73 81 82 85 83 81 78 78 78 77 79 83 86 86 87 88 88 87 85 83 78 71 68 68 65 61 56 45
146 140 141 142 141 148 151 141 136 136 127 127 112 95 59 54 65 71 82 85 79 77 78 77 76 76 79 78 82 84 87 84 82 80 76 72 70 66 60 53 46 41 29
149 150 138 150 150 149 149 149 142 146 145 147 136 131 117 57 31 47 68 86 81 79 76 77 80 78 81 76 73 80 82 77 70 69 70 68 63 56 46 38 28 23 17
149 147 148 154 152 154 164 166 160 154 161 169 141 143 151 176 166 24 41 80 88 84 80 81 83 85 90 84 77 78 76 75 68 59 55 53 45 38 27 16 14 11 4
139 142 151 158 153 152 163 172 165 164 161 167 168 93 116 143 152 158 342 31 72 87 89 81 89 97 99 94 90 82 82 76 61 48 40 36 25 8 1 357 352 350 352
141 141 148 153 155 159 159 164 161 160 166 165 165 155 113 99 103 149 173 194 29 6 106 134 129 112 96 89 86 69 56 57 40 15 6 360 348 349 349 334 330 335 339
151 156 159 156 160 164 163 169 168 172 174 162 156 155 151 154 159 146 161 177 193 234 291 178 144 127 111 95 80 46 35 28 16 5 353 346 336 331 335 341 337 322 323
196 192 175 170 174 172 163 164 167 184 178 169 171 175 170 166 154 147 147 154 165 208 234 256 193 167 154 116 29 359 358 346 344 337 331 338 343 341 339 338 336 333 321
206 193 185 177 176 173 170 169 171 191 181 181 181 171 175 180 162 157 153 150 151 194 224 238 229 193 172 71 344 341 336 323 321 324 321 320 334 337 333 337 337 333 332
199 190 187 179 174 177 176 173 184 192 182 189 187 182 184 191 172 169 156 158 163 188 217 214 211 219 233 250 276 297 321 310 311 313 315 313 316 321 324 328 329 327 326
193 187 188 186 178 180 179 175 189 190 182 192 188 181 190 196 181 171 168 170 170 178 208 209 214 228 225 251 263 268 277 285 295 317 320 316 306 309 315 319 318 319 319
196 193 196 192 190 188 185 187 196 183 187 196 196 193 200 194 187 184 175 174 172 163 205 240 216 206 202 230 275 265 270 278 286 297 305 314 316 317 317 313 312 313 313
203 198 196 195 197 196 194 200 197 189 192 199 201 198 205 199 198 194 185 188 189 179 183 207 222 214 230 219 228 256 274 276 290 290 300 308 314 313 316 316 316 315 314
211 198 192 196 201 201 202 206 199 194 197 202 202 203 205 197 205 204 195 195 193 188 172 184 217 219 230 214 224 260 285 295 293 292 295 302 306 310 309 310 311 310 312
213 207 208 207 206 206 207 203 198 198 201 204 205 208 208 204 207 205 205 197 189 182 174 179 197 209 214 212 198 230 280 291 298 295 294 304 307 308 307 305 303 302 303
222 216 211 209 210 210 209 201 197 198 199 203 208 214 215 212 213 212 215 200 190 189 190 195 204 209 211 202 216 217 255 286 291 273 302 301 305 306 309 306 302 300 300
217 205 204 201 205 218 215 212 209 201 202 205 211 215 219 217 221 225 226 218 205 200 201 205 217 215 218 216 214 222 231 255 270 252 279 294 288 290 298 301 304 304 305
211 208 211 202 211 226 220 219 221 211 206 209 211 211 222 222 221 214 224 227 224 221 215 214 215 217 213 206 202 216 223 231 249 250 257 275 275 280 291 296 304 310 314
216 217 220 214 216 227 223 221 221 211 204 211 215 212 211 211 215 211 205 213 222 225 222 218 218 218 217 208 205 213 221 238 273 255 232 261 274 279 297 299 303 313 320
225 225 223 214 214 227 227 225 217 203 213 216 220 216 211 208 216 214 208 208 221 231 235 228 229 228 225 221 213 186 194 221 264 260 227 236 268 297 296 288 296 310 314
230 232 235 222 212 218 228 229 225 213 216 218 217 216 217 217 219 216 208 203 215 221 210 219 223 227 220 216 215 204 195 213 241 255 225 222 256 308 299 285 301 312 310
Height
1535 1537 1538 1540 1542 1544 1545 1547 1549 1550 1552 1554 1555 1556 1557 1558 1559 1560 1561 1562 1563 1563 1564 1565 1565 1565 1566 1566 1566 1566 1567 1567 1568 1568 1568 1568 1568 1568 1568 1568 1568 1568 1568
1533 1535 1536 1538 1540 1542 1544 1546 1547 1549 1551 1553 1554 1555 1557 1558 1559 1560 1561 1562 1562 1563 1564 1565 1565 1566 1566 1566 1567 1567 1567 1568 1568 1568 1568 1568 1569 1569 1568 1568 1568 1568 1568
1531 1533 1534 1536 1538 1540 1541 1543 1546 1548 1550 1551 1553 1554 1556 1557 1558 1559 1560 1561 1562 1562 1563 1564 1565 1566 1566 1567 1567 1567 1568 1568 1568 1568 1569 1569 1569 1569 1569 1569 1568 1568 1568
1528 1530 1532 1534 1536 1537 1539 1541 1543 1545 1547 1549 1551 1553 1555 1556 1557 1558 1559 1560 1561 1562 1563 1563 1564 1565 1566 1567 1567 1567 1567 1568 1568 1568 1569 1569 1569 1569 1569 1568 1568 1568 1568
1525 1527 1529 1531 1533 1535 1537 1538 1540 1543 1545 1547 1549 1551 1553 1555 1556 1557 1558 1559 1560 1561 1562 1562 1564 1564 1565 1566 1566 1567 1567 1567 1568 1568 1568 1568 1568 1568 1568 1568 1567 1567 1567
1522 1524 1526 1528 1530 1532 1533 1535 1538 1540 1543 1545 1547 1549 1552 1553 1554 1555 1557 1558 1559 1560 1561 1561 1562 1563 1564 1564 1565 1566 1566 1566 1567 1567 1567 1567 1567 1567 1567 1567 1566 1566 1566
1519 1521 1523 1525 1527 1529 1530 1532 1535 1537 1539 1542 1545 1547 1550 1552 1553 1554 1555 1557 1558 1559 1560 1560 1561 1562 1563 1563 1564 1564 1565 1565 1566 1566 1566 1566 1566 1566 1566 1565 1565 1565 1564
1516 1517 1519 1521 1523 1525 1527 1529 1532 1533 1536 1539 1541 1543 1547 1551 1551 1552 1554 1555 1556 1557 1558 1559 1560 1560 1561 1561 1562 1563 1563 1564 1564 1564 1564 1565 1564 1564 1564 1563 1563 1563 1562
1512 1514 1516 1518 1520 1522 1523 1525 1528 1530 1532 1535 1538 1540 1542 1544 1548 1550 1551 1553 1554 1555 1556 1557 1557 1558 1559 1560 1560 1561 1561 1562 1562 1562 1562 1562 1562 1562 1562 1561 1561 1561 1560
1509 1511 1512 1514 1516 1518 1520 1522 1525 1527 1530 1531 1534 1537 1539 1540 1542 1545 1548 1549 1551 1552 1554 1554 1555 1556 1557 1557 1558 1559 1559 1559 1560 1560 1560 1560 1560 1560 1559 1559 1559 1558 1558
1505 1507 1509 1511 1512 1514 1516 1518 1520 1523 1526 1528 1530 1532 1535 1537 1538 1539 1542 1545 1547 1549 1551 1552 1553 1553 1554 1555 1555 1556 1557 1557 1557 1557 1557 1557 1557 1557 1557 1556 1556 1555 1555
1501 1503 1505 1507 1509 1511 1512 1515 1517 1519 1522 1525 1527 1529 1531 1533 1534 1536 1537 1540 1542 1545 1547 1549 1549 1550 1552 1552 1553 1553 1553 1554 1554 1554 1554 1554 1554 1553 1553 1553 1553 1552 1551
1497 1499 1501 1503 1505 1507 1508 1511 1514 1515 1518 1521 1523 1526 1528 1530 1532 1534 1535 1536 1539 1541 1543 1545 1546 1547 1548 1549 1550 1550 1550 1551 1551 1551 1551 1551 1550 1550 1549 1549 1549 1548 1547
1493 1495 1497 1499 1501 1503 1505 1508 1510 1512 1515 1517 1519 1522 1524 1527 1529 1530 1532 1533 1535 1537 1538 1540 1541 1543 1544 1545 1546 1546 1547 1547 1547 1547 1547 1547 1546 1546 1546 1545 1545 1544 1543
1490 1492 1493 1495 1497 1499 1501 1504 1505 1508 1511 1513 1515 1518 1520 1523 1524 1526 1528 1530 1532 1532 1533 1535 1537 1539 1540 1541 1542 1542 1543 1543 1543 1543 1543 1543 1542 1542 1542 1541 1541 1540 1539
1486 1488 1489 1491 1494 1496 1497 1499 1501 1504 1507 1509 1511 1514 1516 1518 1520 1522 1524 1526 1528 1529 1529 1530 1532 1534 1535 1537 1537 1538 1538 1539 1539 1539 1539 1539 1538 1538 1537 1537 1536 1536 1535
1482 1484 1485 1487 1489 1491 1493 1495 1497 1499 1502 1504 1507 1509 1511 1514 1516 1517 1519 1521 1523 1524 1525 1526 1528 1530 1531 1532 1532 1533 1534 1534 1534 1534 1534 1534 1534 1533 1533 1532 1532 1531 1530
1477 1479 1481 1483 1485 1487 1489 1491 1493 1495 1497 1499 1502 1504 1507 1509 1511 1513 1514 1516 1518 1519 1521 1521 1523 1524 1526 1527 1528 1528 1529 1529 1529 1529 1529 1529 1529 1528 1528 1527 1527 1526 1525
1473 1475 1476 1478 1480 1482 1485 1487 1489 1490 1493 1495 1497 1500 1502 1504 1506 1508 1509 1511 1513 1514 1516 1517 1517 1519 1521 1522 1523 1523 1524 1524 1524 1524 1524 1524 1524 1523 1523 1522 1521 1520 1520
1468 1470 1472 1474 1476 1478 1480 1482 1484 1486 1488 1490 1493 1495 1498 1499 1501 1503 1504 1506 1508 1509 1511 1512 1513 1514 1516 1517 1518 1518 1518 1519 1519 1519 1519 1519 1518 1518 1518 1517 1516 1515 1515
1464 1466 1467 1469 1471 1472 1474 1477 1479 1481 1483 1485 1488 1490 1492 1494 1496 1498 1500 1501 1503 1504 1505 1507 1508 1509 1510 1511 1512 1512 1513 1513 1513 1514 1514 1513 1513 1512 1512 1512 1511 1510 1509
1460 1461 1462 1464 1466 1467 1470 1472 1474 1476 1478 1480 1482 1484 1487 1489 1490 1492 1494 1496 1498 1499 1500 1501 1502 1503 1504 1506 1507 1507 1508 1508 1508 1509 1508 1508 1508 1507 1506 1506 1505 1505 1504
1456 1457 1459 1459 1461 1463 1465 1467 1469 1471 1473 1475 1477 1479 1480 1482 1485 1486 1488 1490 1491 1493 1495 1496 1497 1497 1499 1500 1502 1502 1503 1503 1503 1503 1503 1502 1503 1502 1501 1500 1500 1499 1499
1452 1453 1454 1455 1456 1458 1460 1462 1464 1466 1468 1469 1471 1473 1475 1476 1478 1481 1482 1484 1485 1487 1488 1490 1491 1492 1494 1495 1496 1497 1498 1498 1498 1498 1498 1497 1496 1496 1496 1495 1495 1494 1494
1448 1449 1450 1451 1452 1453 1456 1458 1459 1461 1462 1464 1466 1468 1469 1471 1473 1476 1477 1478 1479 1481 1482 1484 1486 1487 1488 1489 1491 1492 1492 1492 1492 1492 1493 1492 1491 1491 1490 1490 1490 1489 1489
1444 1445 1446 1447 1448 1449 1451 1453 1455 1456 1457 1458 1460 1462 1464 1466 1468 1470 1471 1472 1473 1475 1477 1478 1479 1481 1482 1483 1485 1486 1486 1487 1486 1487 1487 1488 1487 1486 1485 1484 1484 1484 1483